Regional Weather Roundup
Issued by NWS Upton, NY

Current Version | Previous Version | Text Only | Print | Product List | Glossary On
Versions: 1 2 3 4 5 6 7 8 9 10 11 12 13 14 15 16 17 18 19 20 21 22 23 24 25 26 27 28 29 30 31 32 33 34 35 36 37 38 39 40 41 42 43 44 45 46 47 48 49 50
000 ASUS41 KOKX 291507 RWROKX REGIONAL WEATHER ROUNDUP NATIONAL WEATHER SERVICE NEW YORK NY 1100 AM EDT SUN MAR 29 2015 NOTE: "FAIR" INDICATES FEW OR NO CLOUDS BELOW 12,000 FEET WITH NO SIGNIFICANT WEATHER AND/OR OBSTRUCTIONS TO VISIBILITY. NYZ071-072-176-178-NJZ106-104-291600- NEW YORK CITY METRO AREA CITY SKY/WX TMP DP RH WIND PRES REMARKS CENTRAL PARK SUNNY 33 1 25 VRB6 30.30S WCI 28 LAGUARDIA APRT SUNNY 34 4 28 N9 30.28F WCI 27 KENNEDY INTL MOSUNNY 36 1 22 N15 30.29S WCI 27 NEWARK/LIBERTY MOSUNNY 36 0 21 NW9 30.30S WCI 29 BRNX BOT. GARD N/A N/A N/A N/A CALM 30.28S TETERBORO SUNNY 34 3 27 N8 30.28F WCI 27 $$ NYZ177-179-078>081-291600- LONG ISLAND NEW YORK CITY SKY/WX TMP DP RH WIND PRES REMARKS FARMINGDALE SUNNY 33 10 38 N10 30.27S WCI 25 ISLIP MOSUNNY 33 11 39 N16 30.24S WCI 23 SHIRLEY MIX PCPN 32 9 38 N15 30.26R WCI 22 WESTHAMPTON SUNNY 31 14 49 N14 30.25S WCI 21 MONTAUK POINT N/A 32 17 54 N9 30.24R WCI 24 $$ NYZ052-065-067-291600- HUDSON VALLEY CITY SKY/WX TMP DP RH WIND PRES REMARKS WHITE PLAINS SUNNY 33 7 33 N13 30.24F WCI 24 NEWBURGH NOT AVBL MONTGOMERY SUNNY 34 4 28 W10 30.26R WCI 26 POUGHKEEPSIE SUNNY 33 5 30 CALM 30.28S ALBANY SUNNY 31 9 39 N8 30.27F WCI 23 $$ NJZ001-105-106-008-010-013-015-019>022-104-291600- NEW JERSEY CITY SKY/WX TMP DP RH WIND PRES REMARKS NEWARK/LIBERTY MOSUNNY 36 0 21 NW9 30.30S WCI 29 TETERBORO SUNNY 34 3 27 N8 30.28F WCI 27 CALDWELL SUNNY 34 1 24 MISG 30.30R MORRISTOWN SUNNY 34 1 25 N6G13 30.30R WCI 29 SOMERVILLE SUNNY 35 -1 21 N12 30.29S WCI 27 SUSSEX SUNNY 32 5 32 N8G16 30.28R WCI 25 ANDOVER N/A 32 4 30 N8 30.28R WCI 25 TRENTON SUNNY 34 4 28 N13 30.30S WCI 25 MILLVILLE SUNNY 35 7 31 N13G21 30.32S WCI 26 ATLANTIC CITY SUNNY 35 7 31 NW13 30.31R WCI 26 WRIGHTSTOWN SUNNY 34 6 30 N8G17 30.28S WCI 28 TOMS RIVER SUNNY 34 3 27 N13 30.30S WCI 25 BELMAR SUNNY 34 5 29 NW10G18 30.29R WCI 26 $$ PAZ047>061-062-071-291600- EASTERN PENNSYLVANIA CITY SKY/WX TMP DP RH WIND PRES REMARKS PHILADELPHIA SUNNY 35 6 29 N9G18 30.35R WCI 28 ALLENTOWN SUNNY 34 10 37 NW12 30.32S WCI 25 SCRANTON SUNNY 31 10 41 CALM 30.28F $$ CTZ002-004>006-009-010-012-RIZ004-006-007-MAZ004-011-015-291600- SOUTHERN NEW ENGLAND IN CT CITY SKY/WX TMP DP RH WIND PRES REMARKS BRADLEY INTL SUNNY 35 4 27 N6 30.23F WCI 30 HARTFORD SUNNY 32 8 36 NE8 30.25S WCI 25 DANBURY SUNNY 32 4 30 NW9 30.26S WCI 24 WTRBRY/OXFORD SUNNY 28 3 34 N9 30.23R WCI 20 BRIDGEPORT SUNNY 36 8 31 N10 30.25F WCI 28 MERIDEN SUNNY 33 5 30 N12 30.24F WCI 24 NEW HAVEN SUNNY 34 10 37 NE12 30.24F WCI 25 CHESTER FAIR 32 9 37 N7 30.22S WCI 26 GROTON SUNNY 33 15 47 N10 30.22S WCI 25 WILLIMANTIC SUNNY 33 6 32 N9 30.22F WCI 25 IN RI CITY SKY/WX TMP DP RH WIND PRES REMARKS PROVIDENCE MOSUNNY 33 12 41 N13 30.22R WCI 24 BLOCK ISLAND SUNNY 30 16 55 N10G17 30.21R WCI 21 WESTERLY SUNNY 31 18 58 N8 30.23R WCI 23 IN MA CITY SKY/WX TMP DP RH WIND PRES REMARKS BOSTON SUNNY 35 4 27 N6 30.21F WCI 30 WORCESTER SUNNY 29 1 30 N9 30.16S WCI 20 WESTFIELD SUNNY 35 3 26 MISG 30.22F PROVINCETOWN SUNNY 36 14 41 N12G17 30.20S WCI 27 NANTUCKET MOSUNNY 37 20 50 NE15 30.17R WCI 28 $$ ANZ330-335-338-340-345-350-353-355-291600- COASTAL MARINE OBSERVATIONS STATION/POSITION TIME SKY/WX TEMP WIND PRES VSBY WAVE AIR SEA DIR/SP/G HT/PER (UTC) (F) (DEG/KT/KT) (MB) (MI) (FT/S) NY HARB ENTRANCE 1450 31 38 330/ 12/ 16 1025.4 4/10 4S FIRE IS 1403 37 N/A 4/10 20S FIRE ISLAND 1350 38 1024.8 5/10 23SW MTP 1450 N/A 5/10 HUDSON CANYON NOT AVBL EXECUTION ROCKS NOT AVBL WESTERN LI SOUND NOT AVBL CENTRAL LI SOUND NOT AVBL EASTERN LI SOUND NOT AVBL ROBBINS REEF 1400 30 350/ 11/ 16 1024.6 $$ >>>>>>>>>>>>>>>>>>>>>>>>>>>> KEY <<<<<<<<<<<<<<<<<<<<<<<<<<< > < > SKY/WX - SKY CONDITION/PRESENT WEATHER < > TMP - TEMPERATURE IN FAHRENHEIT < > DP - DEWPOINT IN FAHRENHEIT < > RH - RELATIVE HUMIDITY IN PERCENT < > WIND - DIRECTION AND SPEED IN MPH < > PRES - MEAN SEA LEVEL PRESSURE IN INCHES OF HG < > WCI - WIND CHILL INDEX < > VSB - VISIBILITY IN MILES < > HX - HEAT INDEX < > TC - TEMPERATURE IN CELSIUS < > VRB - VARIABLE WIND DIRECTION < > < >>>>>>>>>>>>>>>>>>>>>>>>>>>> KEY <<<<<<<<<<<<<<<<<<<<<<<<<<<

USA.gov is the U.S. government's official web portal to all federal, state and local government web resources and services.